Time_in_sec,Latitude,Longitude,Altitude,Nbsat,valid_data
1312468169.97110701,47.37625504,8.55012131,482.80319214,2,1
1312468259.52308106,47.37638092,8.55022144,500.32070923,2,1
1312468259.57177496,47.37638092,8.55022144,500.35366821,2,1
1312468259.62309194,47.37638092,8.55022144,500.38656616,2,1
1312468259.67220736,47.37638092,8.55022144,500.41946411,2,1
1312468259.72320533,47.37638092,8.55022144,500.45227051,2,1
1312468259.77117515,47.37638092,8.55022240,500.35079956,2,1
1312468259.82111359,47.37638092,8.55022240,500.38296509,2,1
1312468259.87233782,47.37638092,8.55022240,500.41513062,2,1
1312468259.92337227,47.37638092,8.55022240,500.44726562,2,1
1312468259.97239208,47.37638092,8.55022240,500.47933960,2,1
1312468260.02023602,47.37638474,8.55022240,500.36907959,2,1
1312468260.07112980,47.37638474,8.55022240,500.40045166,2,1
1312468260.12025928,47.37638474,8.55022240,500.43179321,2,1
1312468260.17107248,47.37638474,8.55022240,500.46310425,2,1
1312468260.22308064,47.37638474,8.55022240,500.49438477,2,1
1312468260.27108693,47.37638474,8.55022335,500.37896729,2,1
1312468260.32315183,47.37638474,8.55022335,500.40957642,2,1
1312468260.37125015,47.37638474,8.55022335,500.44012451,2,1
1312468260.42308617,47.37638474,8.55022335,500.47064209,2,1
1312468260.47121739,47.37638474,8.55022335,500.50109863,2,1
1312468260.52020884,47.37638855,8.55022240,500.37911987,2,1
1312468260.57220793,47.37638855,8.55022240,500.40884399,2,1
1312468260.62320590,47.37638855,8.55022240,500.43853760,2,1
1312468260.66343617,47.37638855,8.55022240,500.46817017,2,1
1312468260.72337890,47.37638855,8.55022240,500.49185181,2,1
1312468260.77220750,47.37638855,8.55022335,500.36947632,2,1
1312468260.82306981,47.37638855,8.55022335,500.39834595,2,1
1312468260.87191391,47.37638855,8.55022335,500.42715454,2,1
1312468260.92500067,47.37638855,8.55022335,500.45590210,2,1
1312468260.97216845,47.37638855,8.55022335,500.48461914,2,1
1312468261.02410936,47.37639236,8.55022335,500.35025024,2,1
1312468261.07110262,47.37639236,8.55022335,500.37820435,2,1
1312468261.12314224,47.37639236,8.55022335,500.40612793,2,1
1312468261.17111659,47.37639236,8.55022335,500.43402100,2,1
1312468261.22408080,47.37639236,8.55022335,500.46188354,2,1
1312468261.27221727,47.37639236,8.55022335,500.31817627,2,1
1312468261.32410765,47.37639236,8.55022335,500.34521484,2,1
1312468261.37214208,47.37639236,8.55022335,500.37219238,2,1
1312468261.42306566,47.37639236,8.55022335,500.39913940,2,1
1312468261.47212839,47.37639236,8.55022335,500.42605591,2,1
1312468261.52312946,47.37639618,8.55022430,500.28216553,2,1
1312468261.57127786,47.37639618,8.55022430,500.30831909,2,1
1312468261.62320828,47.37639618,8.55022430,500.33441162,2,1
1312468261.66421366,47.37639618,8.55022430,500.36047363,2,1
1312468261.72351837,47.37639618,8.55022430,500.38128662,2,1
1312468261.77110910,47.37639618,8.55022526,500.22183228,2,1
1312468261.82310104,47.37639618,8.55022526,500.24697876,2,1
1312468261.87111592,47.37639618,8.55022526,500.27209473,2,1
1312468261.92308879,47.37639618,8.55022526,500.29718018,2,1
1312468261.97115922,47.37639618,8.55022526,500.32220459,2,1
1312468262.02322721,47.37639618,8.55022430,500.15853882,2,1
1312468262.07122397,47.37639618,8.55022430,500.18273926,2,1
1312468262.12322497,47.37639618,8.55022430,500.20690918,2,1
1312468262.17121482,47.37639618,8.55022430,500.23104858,2,1
1312468262.22308135,47.37639618,8.55022430,500.25515747,2,1
1312468262.27161169,47.37639999,8.55022526,500.08810425,2,1
1312468262.32311249,47.37639999,8.55022526,500.11138916,2,1
1312468262.37175298,47.37639999,8.55022526,500.13461304,2,1
1312468262.42310572,47.37639999,8.55022526,500.15780640,2,1
1312468262.47120404,47.37639999,8.55022526,500.18096924,2,1
1312468262.52454591,47.37639999,8.55022621,500.00961304,2,1
1312468262.57110429,47.37639999,8.55022621,500.03195190,2,1
1312468262.62310171,47.37639999,8.55022621,500.05422974,2,1
1312468262.67113638,47.37639999,8.55022621,500.07647705,2,1
1312468262.72346067,47.37639999,8.55022621,500.09869385,2,1
1312468262.77123666,47.37640381,8.55022621,499.92520142,2,1
1312468262.82420206,47.37640381,8.55022621,499.94653320,2,1
1312468262.87134671,47.37640381,8.55022621,499.96783447,2,1
1312468262.92425251,47.37640381,8.55022621,499.98910522,2,1
1312468262.97119308,47.37640381,8.55022621,500.01031494,2,1
1312468263.02026916,47.37640381,8.55022621,499.83660889,2,1
1312468263.07120609,47.37640381,8.55022621,499.85696411,2,1
1312468263.12344837,47.37640381,8.55022621,499.87728882,2,1
1312468263.16321492,47.37640381,8.55022621,499.89761353,2,1
1312468263.22324252,47.37640381,8.55022621,499.91381836,2,1
1312468263.27119708,47.37640381,8.55022526,499.74249268,2,1
1312468263.32361317,47.37640381,8.55022526,499.76190186,2,1
1312468263.37113118,47.37640381,8.55022526,499.78128052,2,1
1312468263.42014050,47.37640381,8.55022526,499.80062866,2,1
1312468263.47205734,47.37640381,8.55022526,499.81991577,2,1
1312468263.52420449,47.37640762,8.55022526,499.64501953,2,1
1312468263.57122159,47.37640762,8.55022526,499.66345215,2,1
1312468263.62010860,47.37640762,8.55022526,499.68185425,2,1
1312468263.67121601,47.37640762,8.55022526,499.70022583,2,1
1312468263.72349691,47.37640762,8.55022526,499.71856689,2,1
1312468263.77110934,47.37640762,8.55022430,499.55584717,2,1
1312468263.82334495,47.37640762,8.55022430,499.57342529,2,1
1312468263.87159085,47.37640762,8.55022430,499.59097290,2,1
1312468263.92012572,47.37640762,8.55022430,499.60845947,2,1
1312468263.97192359,47.37640762,8.55022430,499.62594604,2,1
1312468264.02323890,47.37640762,8.55022526,499.46905518,2,1
1312468264.07215166,47.37640762,8.55022526,499.48574829,2,1
1312468264.12309670,47.37640762,8.55022526,499.50244141,2,1
1312468264.17212367,47.37640762,8.55022526,499.51907349,2,1
1312468264.22310567,47.37640762,8.55022526,499.53564453,2,1
1312468264.27222133,47.37641144,8.55022621,499.37783813,2,1
1312468264.32310367,47.37641144,8.55022621,499.39367676,2,1
1312468264.37196517,47.37641144,8.55022621,499.40945435,2,1
1312468264.42421842,47.37641144,8.55022621,499.42523193,2,1
1312468264.47220778,47.37641144,8.55022621,499.44094849,2,1
1312468264.52306819,47.37641144,8.55022621,499.29696655,2,1
1312468264.57207155,47.37641144,8.55022621,499.31204224,2,1
1312468264.62310934,47.37641144,8.55022621,499.32705688,2,1
1312468264.67222834,47.37641144,8.55022621,499.34207153,2,1
1312468264.72416425,47.37641144,8.55022621,499.35699463,2,1
1312468264.77112341,47.37641144,8.55022717,499.20938110,2,1
1312468264.82421684,47.37641144,8.55022717,499.22360229,2,1
1312468264.87120438,47.37641144,8.55022621,499.23782349,2,1
1312468264.92426991,47.37641144,8.55022621,499.25201416,2,1
1312468264.97111487,47.37641144,8.55022621,499.26617432,3,1
1312468265.02320957,47.37641144,8.55022812,499.11380005,3,1
1312468265.07119465,47.37641144,8.55022812,499.12719727,3,1
1312468265.12311363,47.37641144,8.55022812,499.14059448,3,1
1312468265.16325212,47.37641144,8.55022812,499.15396118,3,1
1312468265.22328687,47.37641144,8.55022812,499.16461182,3,1
1312468265.27120590,47.37641525,8.55022907,499.00616455,3,1
1312468265.32319665,47.37641525,8.55022907,499.01867676,3,1
1312468265.37107849,47.37641525,8.55022907,499.03118896,3,1
1312468265.42313004,47.37641525,8.55022907,499.04364014,3,1
1312468265.47120547,47.37641525,8.55022907,499.05606079,3,1
1312468265.52319670,47.37641525,8.55023003,498.89883423,3,1
1312468265.57107210,47.37641525,8.55023003,498.91046143,3,1
1312468265.62310576,47.37641525,8.55023003,498.92208862,3,1
1312468265.66422105,47.37641525,8.55023003,498.93365479,3,1
1312468265.72308040,47.37641525,8.55023003,498.94290161,3,1
1312468265.77120447,47.37641525,8.55023003,498.79626465,3,1
1312468265.82396317,47.37641525,8.55023003,498.80709839,3,1
1312468265.87119579,47.37641525,8.55023003,498.81784058,3,1
1312468265.92320514,47.37641907,8.55023003,498.82858276,3,1
1312468265.97119284,47.37641907,8.55023003,498.83929443,3,1
1312468266.02320910,47.37641907,8.55023098,498.67886353,3,1
1312468266.07224727,47.37641907,8.55023098,498.68878174,3,1
1312468266.12307262,47.37641907,8.55023098,498.69863892,3,1
1312468266.16026306,47.37641907,8.55023098,498.70849609,3,1
1312468266.22405863,47.37641907,8.55023098,498.71636963,3,1
1312468266.27119398,47.37641907,8.55023098,498.57623291,3,1
1312468266.32310963,47.37641907,8.55023098,498.58538818,3,1
1312468266.37122726,47.37641907,8.55023098,498.59454346,3,1
1312468266.42309713,47.37641907,8.55023098,498.60363770,3,1
1312468266.47179461,47.37641907,8.55023098,498.61270142,3,1
1312468266.52411294,47.37641907,8.55023098,498.47741699,3,1
1312468266.57219315,47.37641907,8.55023098,498.48583984,3,1
1312468266.62414861,47.37641907,8.55023098,498.49423218,3,1
1312468266.67123079,47.37641907,8.55023098,498.50262451,3,1
1312468266.72306895,47.37641907,8.55023098,498.51092529,3,1
1312468266.77110791,47.37641907,8.55023193,498.38519287,3,1
1312468266.82039690,47.37641907,8.55023193,498.39294434,3,1
1312468266.87113976,47.37641907,8.55023193,498.40066528,3,1
1312468266.92408442,47.37641907,8.55023193,498.40835571,3,1
1312468266.97217512,47.37641907,8.55023193,498.41598511,3,1
1312468267.02306247,47.37641907,8.55023098,498.29473877,3,1
1312468267.07210684,47.37641907,8.55023098,498.30181885,3,1
1312468267.12306476,47.37641907,8.55023098,498.30886841,3,1
1312468267.16421771,47.37641907,8.55023098,498.31588745,3,1
1312468267.22311878,47.37641907,8.55023098,498.32147217,3,1
1312468267.27109337,47.37641907,8.55023003,498.21075439,3,1
1312468267.32407403,47.37641907,8.55023003,498.21719360,3,1
1312468267.37107897,47.37641907,8.55023003,498.22360229,3,1
1312468267.42308402,47.37641907,8.55023003,498.22991943,3,1
1312468267.47109699,47.37641907,8.55023003,498.23623657,3,1
1312468267.52319670,47.37641907,8.55023098,498.13357544,3,1
1312468267.57120419,47.37641907,8.55023098,498.13940430,3,1
1312468267.62407470,47.37641907,8.55023098,498.14517212,3,1
1312468267.66421509,47.37641907,8.55023098,498.15090942,3,1
1312468267.72307348,47.37641907,8.55023098,498.15545654,3,1
1312468267.77119279,47.37641907,8.55023098,498.05648804,3,1
1312468267.82312560,47.37641907,8.55023098,498.06170654,3,1
1312468267.87110949,47.37641907,8.55023098,498.06692505,3,1
1312468267.92319512,47.37641907,8.55023098,498.07208252,3,1
1312468267.97126341,47.37641907,8.55023098,498.07717896,3,1
1312468268.02420878,47.37641907,8.55023003,497.97125244,3,1
1312468268.07107425,47.37641907,8.55023003,497.97583008,3,1
1312468268.12358332,47.37641907,8.55023003,497.98037720,3,1
1312468268.17120314,47.37641907,8.55023003,497.98492432,3,1
1312468268.22305775,47.37641907,8.55023098,497.98941040,3,1
1312468268.27111745,47.37641907,8.55023003,497.89898682,3,1
1312468268.32312751,47.37641907,8.55023003,497.90298462,3,1
1312468268.37222958,47.37641907,8.55023003,497.90692139,3,1
1312468268.42361641,47.37641907,8.55023003,497.91085815,3,1
1312468268.47120690,47.37641907,8.55023003,497.91473389,3,1
1312468268.52311301,47.37641907,8.55023003,497.84631348,3,1
1312468268.57228875,47.37641907,8.55023003,497.84985352,3,1
1312468268.62410688,47.37641907,8.55023003,497.85336304,3,1
1312468268.67118955,47.37641907,8.55023003,497.85684204,3,1
1312468268.72306681,47.37641907,8.55023003,497.86029053,3,1
1312468268.77108169,47.37641907,8.55022907,497.81265259,3,1
1312468268.82316995,47.37641907,8.55022907,497.81585693,3,1
1312468268.87119126,47.37641907,8.55022907,497.81906128,3,1
1312468268.92307758,47.37641907,8.55022907,497.82220459,3,1
1312468268.97223783,47.37641907,8.55022907,497.82534790,3,1
1312468269.02310848,47.37641907,8.55022812,497.78771973,3,1
1312468269.07120514,47.37641907,8.55022812,497.79061890,3,1
1312468269.12316322,47.37641907,8.55022812,497.79351807,3,1
1312468269.17110825,47.37641907,8.55022812,497.79635620,3,1
1312468269.22311044,47.37641907,8.55022812,497.79919434,3,1
1312468269.27125931,47.37641907,8.55022717,497.76620483,3,1
1312468269.32334471,47.37641907,8.55022717,497.76879883,3,1
1312468269.37122083,47.37641907,8.55022717,497.77136230,3,1
1312468269.42326784,47.37641907,8.55022717,497.77389526,3,1
1312468269.47111011,47.37641907,8.55022717,497.77636719,3,1
1312468269.52304173,47.37641907,8.55022717,497.76400757,3,1
1312468269.57110167,47.37641907,8.55022717,497.76635742,3,1
1312468269.62020659,47.37641907,8.55022717,497.76864624,3,1
1312468269.66310978,47.37641907,8.55022717,497.77093506,3,1
1312468269.72323823,47.37641907,8.55022717,497.77273560,3,1
1312468269.77218461,47.37641907,8.55022621,497.77462769,3,1
1312468269.82307839,47.37641907,8.55022621,497.77679443,3,1
1312468269.87211847,47.37641907,8.55022621,497.77893066,3,1
1312468269.92310572,47.37641907,8.55022621,497.78100586,3,1
1312468269.96324897,47.37641907,8.55022621,497.78308105,3,1
1312468270.02317142,47.37641907,8.55022526,497.80105591,3,1
1312468270.07154346,47.37641907,8.55022526,497.80355835,3,1
1312468270.12021399,47.37641907,8.55022526,497.80557251,3,1
1312468270.17111468,47.37641907,8.55022526,497.80758667,3,1
1312468270.22307920,47.37641907,8.55022526,497.80953979,3,1
1312468270.27169013,47.37641525,8.55022430,497.84866333,3,1
1312468270.32310987,47.37641525,8.55022430,497.85067749,3,1
1312468270.37112761,47.37641525,8.55022430,497.85266113,3,1
1312468270.42408419,47.37641525,8.55022430,497.85461426,3,1
1312468270.47111559,47.37641525,8.55022430,497.85650635,3,1
1312468270.52411747,47.37641525,8.55022335,497.91671753,3,1
1312468270.57120466,47.37641525,8.55022335,497.91879272,3,1
1312468270.62306857,47.37641525,8.55022335,497.92080688,3,1
1312468270.67221928,47.37641525,8.55022335,497.92279053,3,1
1312468270.72351503,47.37641525,8.55022240,497.92474365,3,1
1312468270.77189279,47.37641525,8.55022240,498.00656128,3,1
1312468270.82319975,47.37641525,8.55022240,498.00875854,3,1
1312468270.87120438,47.37641525,8.55022240,498.01092529,3,1
1312468270.92310119,47.37641525,8.55022240,498.01300049,3,1
1312468270.97119188,47.37641525,8.55022240,498.01504517,3,1
1312468271.02308774,47.37641144,8.55022240,498.12039185,3,1
1312468271.07110739,47.37641144,8.55022240,498.12280273,3,1
1312468271.12320375,47.37641144,8.55022240,498.12518311,3,1
1312468271.17120266,47.37641144,8.55022240,498.12750244,3,1
1312468271.22319198,47.37641144,8.55022240,498.12979126,3,1
1312468271.27119422,47.37641144,8.55022144,498.25366211,3,1
1312468271.32378793,47.37641144,8.55022144,498.25637817,3,1
1312468271.37220383,47.37641144,8.55022144,498.25906372,3,1
1312468271.42309666,47.37641144,8.55022144,498.26171875,3,1
1312468271.47120214,47.37641144,8.55022144,498.26434326,3,1
1312468271.52324152,47.37641144,8.55022144,498.41168213,3,1
1312468271.57180190,47.37641144,8.55022049,498.41485596,3,1
1312468271.62323236,47.37641144,8.55022049,498.41799927,3,1
1312468271.67112494,47.37641144,8.55022049,498.42111206,3,1
1312468271.72320628,47.37641144,8.55022049,498.42419434,3,1
1312468271.77191830,47.37641144,8.55022049,498.58245850,3,1
1312468271.82305479,47.37641144,8.55022049,498.58609009,3,1
1312468271.87208104,47.37641144,8.55022049,498.58969116,3,1
1312468271.92367029,47.37641144,8.55022049,498.59329224,3,1
1312468271.97220516,47.37641144,8.55022049,498.59680176,3,1
1312468272.02317929,47.37641144,8.55021954,498.76300049,3,1
1312468272.07216334,47.37641144,8.55021954,498.76705933,3,1
1312468272.12333775,47.37640762,8.55021954,498.77111816,3,1
1312468272.17119527,47.37640762,8.55021954,498.77511597,3,1
1312468272.22308040,47.37640762,8.55021954,498.77905273,3,1
1312468272.27120996,47.37640762,8.55021954,498.96209717,3,1
1312468272.32309890,47.37640762,8.55021954,498.96670532,3,1
1312468272.37111688,47.37640762,8.55021954,498.97128296,3,1
1312468272.42320609,47.37640762,8.55021954,498.97583008,3,1
1312468272.47121429,47.37640762,8.55021954,498.98034668,3,1
1312468272.52410030,47.37640762,8.55021858,499.17593384,3,1
1312468272.57121682,47.37640762,8.55021858,499.18112183,3,1
1312468272.62309432,47.37640762,8.55021858,499.18627930,3,1
1312468272.66367197,47.37640762,8.55021858,499.19140625,3,1
1312468272.72329974,47.37640762,8.55021858,499.19549561,3,1
1312468272.77108860,47.37640381,8.55021858,499.41067505,3,1
1312468272.82306099,47.37640381,8.55021858,499.41653442,3,1
1312468272.87109089,47.37640381,8.55021858,499.42236328,3,1
1312468272.92016602,47.37640381,8.55021858,499.42813110,3,1
1312468272.97109103,47.37640381,8.55021858,499.43389893,2,1
1312468273.02357101,47.37640381,8.55021763,499.65396118,2,1
1312468273.07111406,47.37640381,8.55021763,499.66049194,2,1
1312468273.12021422,47.37640381,8.55021763,499.66696167,2,1
1312468273.17221618,47.37640381,8.55021763,499.67343140,2,1
1312468273.22310734,47.37640381,8.55021763,499.67984009,2,1
1312468273.27112579,47.37639999,8.55021572,499.91522217,2,1
1312468273.32408047,47.37639999,8.55021572,499.92248535,2,1
1312468273.37111473,47.37639999,8.55021572,499.92971802,2,1
1312468273.42306924,47.37639999,8.55021572,499.93688965,2,1
1312468273.47111511,47.37639999,8.55021572,499.94406128,2,1
1312468273.52323389,47.37639999,8.55021477,500.17846680,2,1
1312468273.57120299,47.37639999,8.55021477,500.18643188,2,1
1312468273.62323284,47.37639618,8.55021477,500.19433594,2,1
1312468273.66319442,47.37639618,8.55021477,500.20223999,2,1
1312468273.72413588,47.37639618,8.55021477,500.20849609,2,1
1312468273.77119374,47.37639618,8.55021381,500.45672607,2,1
1312468273.82307434,47.37639618,8.55021381,500.46542358,2,1
1312468273.87120700,47.37639618,8.55021381,500.47409058,2,1
1312468273.92368031,47.37639618,8.55021381,500.48269653,2,1
1312468273.97213745,47.37639618,8.55021381,500.49130249,2,1
1312468274.02306604,47.37639618,8.55021381,500.74310303,2,1
1312468274.07119346,47.37639618,8.55021381,500.75256348,2,1
1312468274.12311244,47.37639236,8.55021381,500.76202393,2,1
1312468274.17108679,47.37639236,8.55021381,500.77142334,2,1
1312468274.22307301,47.37639236,8.55021381,500.78079224,2,1
1312468274.27206278,47.37639236,8.55021191,501.03921509,2,1
1312468274.32314968,47.37639236,8.55021191,501.04949951,2,1
1312468274.37189960,47.37639236,8.55021191,501.05972290,2,1
1312468274.42309427,47.37639236,8.55021191,501.06991577,2,1
1312468274.47215486,47.37639236,8.55021191,501.08007812,2,1
1312468274.52304626,47.37639236,8.55021095,501.35211182,2,1
1312468274.57106566,47.37639236,8.55021095,501.36322021,2,1
1312468274.62308002,47.37639236,8.55021095,501.37426758,2,1
1312468274.66335464,47.37639236,8.55021095,501.38528442,2,1
1312468274.72320294,47.37639236,8.55021095,501.39404297,2,1
1312468274.76307583,47.37638855,8.55020905,501.67477417,2,1
1312468274.82319880,47.37638855,8.55020905,501.68432617,2,1
1312468274.87164283,47.37638855,8.55020905,501.69857788,2,1
1312468274.92319512,47.37638855,8.55020809,501.71044922,2,1
1312468274.97113252,47.37638855,8.55020809,501.72225952,2,1
1312468275.02350092,47.37638474,8.55020714,502.00390625,2,1
1312468275.07120275,47.37638474,8.55020714,502.01669312,2,1
1312468275.12336063,47.37638474,8.55020714,502.02944946,2,1
1312468275.17222476,47.37638474,8.55020714,502.04214478,2,1
1312468275.22310138,47.37638474,8.55020714,502.05477905,2,1
1312468275.27121401,47.37638474,8.55020523,502.34768677,2,1
1312468275.32392001,47.37638474,8.55020523,502.36135864,2,1
1312468275.37108827,47.37638474,8.55020523,502.37500000,2,1
1312468275.42305470,47.37638474,8.55020523,502.38858032,2,1
1312468275.47107840,47.37638474,8.55020523,502.40213013,2,1
1312468275.52315903,47.37638474,8.55020428,502.70803833,2,1
1312468275.57121873,47.37638474,8.55020428,502.72271729,2,1
1312468275.62308884,47.37638092,8.55020332,502.73733521,2,1
1312468275.66025829,47.37638092,8.55020332,502.75192261,2,1
1312468275.72363329,47.37638092,8.55020332,502.76354980,2,1
1312468275.77108359,47.37638092,8.55020237,503.06851196,2,1
1312468275.82310534,47.37638092,8.55020237,503.08410645,2,1
1312468275.87120605,47.37638092,8.55020237,503.09967041,2,1
1312468275.92308354,47.37638092,8.55020237,503.11520386,2,1
1312468275.97121167,47.37638092,8.55020237,503.13070679,2,1
1312468276.02362847,47.37638092,8.55020046,503.44094849,2,1
1312468276.07111502,47.37638092,8.55020046,503.45751953,2,1
1312468276.12363935,47.37638092,8.55020046,503.47402954,2,1
1312468276.17109442,47.37638092,8.55020046,503.49050903,2,1
1312468276.22413325,47.37638092,8.55020046,503.50695801,2,1
1312468276.27110124,47.37637711,8.55019855,503.82077026,2,1
1312468276.32414508,47.37637711,8.55019855,503.83828735,2,1
1312468276.37110138,47.37637711,8.55019855,503.85580444,2,1
1312468276.42330003,47.37637711,8.55019855,503.87326050,2,1
1312468276.47212720,47.37637711,8.55019855,503.89065552,2,1
1312468276.52408433,47.37637711,8.55019569,504.19500732,2,1
1312468276.57111788,47.37637711,8.55019569,504.21347046,2,1
1312468276.62305355,47.37637711,8.55019569,504.23190308,2,1
1312468276.66319776,47.37637711,8.55019474,504.25030518,2,1
1312468276.72319698,47.37637711,8.55019474,504.26498413,2,1
1312468276.77180147,47.37637711,8.55019283,504.57351685,2,1
1312468276.82311559,47.37637711,8.55019283,504.59292603,2,1
1312468276.87113905,47.37637711,8.55019283,504.61230469,2,1
1312468276.92366838,47.37637711,8.55019283,504.63162231,2,1
1312468276.97112131,47.37637329,8.55019283,504.65093994,2,1
1312468277.02306294,47.37637329,8.55018997,504.94955444,2,1
1312468277.07224894,47.37637329,8.55018997,504.96987915,2,1
1312468277.12353778,47.37637329,8.55018997,504.99017334,2,1
1312468277.17120028,47.37637329,8.55018997,505.01043701,2,1
1312468277.22336841,47.37637329,8.55018997,505.03063965,2,1
1312468277.27111673,47.37637329,8.55018806,505.31472778,2,1
1312468277.32384181,47.37637329,8.55018806,505.33587646,2,1
1312468277.37119126,47.37637329,8.55018806,505.35696411,2,1
1312468277.42310262,47.37637329,8.55018806,505.37802124,2,1
1312468277.47120166,47.37637329,8.55018806,505.39904785,2,1
1312468277.52405858,47.37637329,8.55018520,505.68270874,2,1
1312468277.57119155,47.37637329,8.55018520,505.70468140,2,1
1312468277.62361717,47.37637329,8.55018520,505.72665405,2,1
1312468277.66422772,47.37637329,8.55018520,505.74856567,2,1
1312468277.72342277,47.37637329,8.55018520,505.76608276,2,1
1312468277.77221322,47.37637329,8.55018234,506.03820801,2,1
1312468277.82315087,47.37637329,8.55018234,506.06094360,2,1
1312468277.87119031,47.37637329,8.55018234,506.08367920,2,1
1312468277.92319155,47.37636948,8.55018234,506.10635376,2,1
1312468277.97119093,47.37636948,8.55018234,506.12899780,2,1
1312468278.02320528,47.37636948,8.55017948,506.38424683,2,1
1312468278.07120275,47.37636948,8.55017948,506.40768433,2,1
1312468278.12407279,47.37636948,8.55017948,506.43112183,2,1
1312468278.17119241,47.37636948,8.55017948,506.45452881,2,1
1312468278.22307539,47.37636948,8.55017948,506.47787476,2,1
